Time,TemperatureF,DewpointF,PressureIn,WindDirection,WindDirectionDegrees,WindSpeedMPH,WindSpeedGustMPH,Humidity,HourlyPrecipIn,Conditions,Clouds,dailyrainin,SoftwareType,DateUTC
2013-11-24 00:02:00,12.9,8.4,30.79,NE,51,3.0,5.0,82,0.00,,,0.00,Wunderground v.1.15,2013-11-24 06:02:00,
2013-11-24 00:07:00,12.9,8.4,30.79,NE,51,3.0,5.0,82,0.00,,,0.00,Wunderground v.1.15,2013-11-24 06:07:00,
2013-11-24 00:13:00,12.8,8.1,30.78,NE,51,3.0,5.0,81,0.00,,,0.00,Wunderground v.1.15,2013-11-24 06:13:00,
2013-11-24 00:18:00,12.8,8.3,30.78,NE,51,3.0,5.0,82,0.00,,,0.00,Wunderground v.1.15,2013-11-24 06:18:00,
2013-11-24 00:32:00,12.5,8.0,30.78,NE,51,2.0,7.0,82,0.00,,,0.00,Wunderground v.1.15,2013-11-24 06:32:00,
2013-11-24 00:38:00,12.3,7.9,30.79,NE,51,0.0,7.0,82,0.00,,,0.00,Wunderground v.1.15,2013-11-24 06:38:00,
2013-11-24 00:43:00,12.2,7.8,30.79,NE,51,0.0,7.0,82,0.00,,,0.00,Wunderground v.1.15,2013-11-24 06:43:00,
2013-11-24 00:49:00,12.1,7.9,30.79,NE,51,0.0,7.0,83,0.00,,,0.00,Wunderground v.1.15,2013-11-24 06:49:00,
2013-11-24 00:54:00,12.0,7.8,30.79,NE,51,0.0,7.0,83,0.00,,,0.00,Wunderground v.1.15,2013-11-24 06:54:00,
2013-11-24 01:00:00,12.1,7.9,30.79,NE,51,0.0,7.0,83,0.00,,,0.00,Wunderground v.1.15,2013-11-24 07:00:00,
2013-11-24 01:06:00,12.0,7.8,30.79,NE,51,0.0,7.0,83,0.00,,,0.00,Wunderground v.1.15,2013-11-24 07:06:00,
2013-11-24 01:12:00,11.9,7.7,30.79,NE,51,1.0,7.0,83,0.00,,,0.00,Wunderground v.1.15,2013-11-24 07:12:00,
2013-11-24 01:17:00,11.9,7.7,30.79,NE,51,1.0,7.0,83,0.00,,,0.00,Wunderground v.1.15,2013-11-24 07:17:00,
2013-11-24 01:23:00,12.0,7.8,30.79,NE,51,0.0,7.0,83,0.00,,,0.00,Wunderground v.1.15,2013-11-24 07:23:00,
2013-11-24 01:29:00,11.9,7.7,30.79,NE,51,1.0,7.0,83,0.00,,,0.00,Wunderground v.1.15,2013-11-24 07:29:00,
2013-11-24 01:34:00,11.9,7.7,30.79,NE,51,0.0,7.0,83,0.00,,,0.00,Wunderground v.1.15,2013-11-24 07:34:00,
2013-11-24 01:39:00,11.8,7.6,30.78,NE,51,0.0,7.0,83,0.00,,,0.00,Wunderground v.1.15,2013-11-24 07:39:00,
2013-11-24 01:45:00,11.7,7.5,30.79,NE,51,0.0,7.0,83,0.00,,,0.00,Wunderground v.1.15,2013-11-24 07:45:00,
2013-11-24 01:51:00,11.7,7.5,30.79,NE,51,0.0,7.0,83,0.00,,,0.00,Wunderground v.1.15,2013-11-24 07:51:00,
2013-11-24 01:56:00,11.7,7.8,30.79,NE,51,0.0,7.0,84,0.00,,,0.00,Wunderground v.1.15,2013-11-24 07:56:00,
2013-11-24 02:02:00,11.6,7.7,30.79,NE,51,0.0,7.0,84,0.00,,,0.00,Wunderground v.1.15,2013-11-24 08:02:00,
2013-11-24 02:19:00,11.4,7.5,30.79,NE,51,0.0,7.0,84,0.00,,,0.00,Wunderground v.1.15,2013-11-24 08:19:00,
2013-11-24 02:25:00,11.4,7.5,30.79,NE,51,1.0,7.0,84,0.00,,,0.00,Wunderground v.1.15,2013-11-24 08:25:00,
2013-11-24 02:31:00,11.4,7.5,30.79,NE,51,1.0,7.0,84,0.00,,,0.00,Wunderground v.1.15,2013-11-24 08:31:00,
2013-11-24 02:37:00,11.4,7.5,30.79,NE,51,1.0,7.0,84,0.00,,,0.00,Wunderground v.1.15,2013-11-24 08:37:00,
2013-11-24 02:42:00,11.3,7.4,30.79,NE,51,1.0,7.0,84,0.00,,,0.00,Wunderground v.1.15,2013-11-24 08:42:00,
2013-11-24 02:48:00,11.3,7.4,30.79,NE,51,1.0,7.0,84,0.00,,,0.00,Wunderground v.1.15,2013-11-24 08:48:00,
2013-11-24 02:53:00,11.1,7.5,30.79,NE,51,0.0,7.0,85,0.00,,,0.00,Wunderground v.1.15,2013-11-24 08:53:00,
2013-11-24 02:59:00,11.1,7.5,30.79,NE,51,0.0,7.0,85,0.00,,,0.00,Wunderground v.1.15,2013-11-24 08:59:00,
2013-11-24 03:04:00,11.0,7.4,30.79,NE,51,0.0,7.0,85,0.00,,,0.00,Wunderground v.1.15,2013-11-24 09:04:00,
2013-11-24 03:10:00,11.1,7.5,30.79,NE,51,0.0,7.0,85,0.00,,,0.00,Wunderground v.1.15,2013-11-24 09:10:00,
2013-11-24 03:15:00,11.0,7.4,30.79,NE,51,0.0,7.0,85,0.00,,,0.00,Wunderground v.1.15,2013-11-24 09:15:00,
2013-11-24 03:34:00,10.9,7.3,30.78,NE,51,0.0,7.0,85,0.00,,,0.00,Wunderground v.1.15,2013-11-24 09:34:00,
2013-11-24 03:39:00,10.8,7.2,30.78,NE,51,0.0,7.0,85,0.00,,,0.00,Wunderground v.1.15,2013-11-24 09:39:00,
2013-11-24 03:45:00,10.8,7.2,30.78,NE,51,0.0,7.0,85,0.00,,,0.00,Wunderground v.1.15,2013-11-24 09:45:00,
2013-11-24 03:50:00,10.7,7.1,30.79,NE,51,1.0,7.0,85,0.00,,,0.00,Wunderground v.1.15,2013-11-24 09:50:00,
2013-11-24 03:56:00,10.7,7.3,30.79,NE,51,1.0,7.0,86,0.00,,,0.00,Wunderground v.1.15,2013-11-24 09:56:00,
2013-11-24 04:01:00,10.7,7.3,30.79,NE,51,1.0,7.0,86,0.00,,,0.00,Wunderground v.1.15,2013-11-24 10:01:00,
2013-11-24 04:07:00,10.7,7.3,30.79,NE,51,1.0,7.0,86,0.00,,,0.00,Wunderground v.1.15,2013-11-24 10:07:00,
2013-11-24 04:12:00,10.8,7.4,30.79,NE,51,2.0,7.0,86,0.00,,,0.00,Wunderground v.1.15,2013-11-24 10:12:00,
2013-11-24 04:27:00,10.8,7.4,30.79,NE,51,2.0,7.0,86,0.00,,,0.00,Wunderground v.1.15,2013-11-24 10:27:00,
2013-11-24 04:32:00,10.8,7.4,30.79,NE,51,2.0,7.0,86,0.00,,,0.00,Wunderground v.1.15,2013-11-24 10:32:00,
2013-11-24 04:37:00,10.8,7.4,30.79,NE,51,2.0,7.0,86,0.00,,,0.00,Wunderground v.1.15,2013-11-24 10:37:00,
2013-11-24 04:43:00,10.8,7.4,30.79,NE,51,2.0,7.0,86,0.00,,,0.00,Wunderground v.1.15,2013-11-24 10:43:00,
2013-11-24 04:48:00,10.8,7.4,30.79,NE,51,1.0,7.0,86,0.00,,,0.00,Wunderground v.1.15,2013-11-24 10:48:00,
2013-11-24 04:54:00,10.7,7.3,30.79,NE,51,1.0,7.0,86,0.00,,,0.00,Wunderground v.1.15,2013-11-24 10:54:00,
2013-11-24 04:59:00,10.7,7.3,30.78,NE,51,1.0,7.0,86,0.00,,,0.00,Wunderground v.1.15,2013-11-24 10:59:00,
2013-11-24 05:05:00,10.6,7.2,30.78,NE,51,0.0,7.0,86,0.00,,,0.00,Wunderground v.1.15,2013-11-24 11:05:00,
2013-11-24 05:10:00,10.5,7.1,30.79,NE,51,0.0,7.0,86,0.00,,,0.00,Wunderground v.1.15,2013-11-24 11:10:00,
2013-11-24 05:16:00,10.5,7.1,30.79,NE,51,0.0,7.0,86,0.00,,,0.00,Wunderground v.1.15,2013-11-24 11:16:00,
2013-11-24 05:22:00,10.5,7.1,30.80,NE,51,0.0,7.0,86,0.00,,,0.00,Wunderground v.1.15,2013-11-24 11:22:00,
2013-11-24 05:27:00,10.4,7.0,30.80,NE,51,0.0,7.0,86,0.00,,,0.00,Wunderground v.1.15,2013-11-24 11:27:00,
2013-11-24 05:33:00,10.4,7.0,30.80,NE,51,0.0,7.0,86,0.00,,,0.00,Wunderground v.1.15,2013-11-24 11:33:00,
2013-11-24 05:38:00,10.2,6.8,30.80,NE,51,1.0,7.0,86,0.00,,,0.00,Wunderground v.1.15,2013-11-24 11:38:00,
2013-11-24 05:43:00,10.1,6.7,30.80,NE,51,1.0,7.0,86,0.00,,,0.00,Wunderground v.1.15,2013-11-24 11:43:00,
2013-11-24 05:49:00,10.1,6.7,30.80,NE,51,0.0,7.0,86,0.00,,,0.00,Wunderground v.1.15,2013-11-24 11:49:00,
2013-11-24 05:54:00,10.0,6.6,30.79,NE,51,0.0,7.0,86,0.00,,,0.00,Wunderground v.1.15,2013-11-24 11:54:00,
2013-11-24 05:59:00,9.9,6.8,30.79,NE,51,0.0,7.0,87,0.00,,,0.00,Wunderground v.1.15,2013-11-24 11:59:00,
2013-11-24 06:04:00,10.1,7.0,30.79,NE,51,0.0,7.0,87,0.00,,,0.00,Wunderground v.1.15,2013-11-24 12:04:00,
2013-11-24 06:10:00,10.1,7.0,30.79,NE,51,0.0,7.0,87,0.00,,,0.00,Wunderground v.1.15,2013-11-24 12:10:00,
2013-11-24 06:16:00,10.1,7.0,30.79,NE,51,0.0,7.0,87,0.00,,,0.00,Wunderground v.1.15,2013-11-24 12:16:00,
2013-11-24 06:21:00,9.9,6.8,30.78,NE,51,0.0,7.0,87,0.00,,,0.00,Wunderground v.1.15,2013-11-24 12:21:00,
2013-11-24 06:26:00,9.8,6.7,30.78,NE,51,0.0,7.0,87,0.00,,,0.00,Wunderground v.1.15,2013-11-24 12:26:00,
2013-11-24 06:32:00,9.8,6.7,30.78,NE,51,0.0,7.0,87,0.00,,,0.00,Wunderground v.1.15,2013-11-24 12:32:00,
2013-11-24 06:38:00,9.6,6.5,30.78,NE,51,0.0,7.0,87,0.00,,,0.00,Wunderground v.1.15,2013-11-24 12:38:00,
2013-11-24 06:43:00,9.6,6.8,30.77,NE,51,0.0,7.0,88,0.00,,,0.00,Wunderground v.1.15,2013-11-24 12:43:00,
2013-11-24 06:49:00,9.6,6.8,30.78,NE,51,0.0,7.0,88,0.00,,,0.00,Wunderground v.1.15,2013-11-24 12:49:00,
2013-11-24 06:54:00,9.5,6.7,30.78,NE,51,0.0,7.0,88,0.00,,,0.00,Wunderground v.1.15,2013-11-24 12:54:00,
2013-11-24 07:00:00,9.6,6.8,30.78,NE,51,0.0,7.0,88,0.00,,,0.00,Wunderground v.1.15,2013-11-24 13:00:00,
2013-11-24 07:06:00,9.6,7.0,30.78,NE,51,0.0,7.0,89,0.00,,,0.00,Wunderground v.1.15,2013-11-24 13:06:00,
2013-11-24 07:11:00,9.5,6.9,30.78,NE,51,0.0,7.0,89,0.00,,,0.00,Wunderground v.1.15,2013-11-24 13:11:00,
2013-11-24 07:16:00,9.4,6.6,30.78,NE,51,1.0,7.0,88,0.00,,,0.00,Wunderground v.1.15,2013-11-24 13:16:00,
2013-11-24 07:22:00,9.4,6.8,30.78,NE,51,0.0,7.0,89,0.00,,,0.00,Wunderground v.1.15,2013-11-24 13:22:00,
2013-11-24 07:27:00,9.6,7.0,30.78,NE,51,0.0,7.0,89,0.00,,,0.00,Wunderground v.1.15,2013-11-24 13:27:00,
2013-11-24 07:33:00,9.9,7.3,30.79,NE,51,0.0,7.0,89,0.00,,,0.00,Wunderground v.1.15,2013-11-24 13:33:00,
2013-11-24 07:38:00,10.3,7.7,30.79,NE,51,0.0,7.0,89,0.00,,,0.00,Wunderground v.1.15,2013-11-24 13:38:00,
2013-11-24 07:44:00,10.8,8.2,30.79,NE,51,0.0,7.0,89,0.00,,,0.00,Wunderground v.1.15,2013-11-24 13:44:00,
2013-11-24 07:49:00,11.2,8.6,30.79,NE,51,1.0,7.0,89,0.00,,,0.00,Wunderground v.1.15,2013-11-24 13:49:00,
2013-11-24 07:55:00,11.5,8.6,30.80,NE,51,1.0,7.0,88,0.00,,,0.00,Wunderground v.1.15,2013-11-24 13:55:00,
2013-11-24 08:00:00,11.7,8.6,30.79,NE,51,2.0,7.0,87,0.00,,,0.00,Wunderground v.1.15,2013-11-24 14:00:00,
2013-11-24 08:06:00,12.0,8.6,30.80,NE,51,2.0,7.0,86,0.00,,,0.00,Wunderground v.1.15,2013-11-24 14:06:00,
2013-11-24 08:11:00,12.3,8.7,30.80,NE,51,2.0,7.0,85,0.00,,,0.00,Wunderground v.1.15,2013-11-24 14:11:00,
2013-11-24 08:17:00,12.6,8.9,30.79,NE,51,2.0,7.0,85,0.00,,,0.00,Wunderground v.1.15,2013-11-24 14:17:00,
2013-11-24 08:22:00,12.9,9.2,30.79,NE,51,3.0,7.0,85,0.00,,,0.00,Wunderground v.1.15,2013-11-24 14:22:00,
2013-11-24 08:28:00,13.3,9.6,30.79,NE,51,3.0,7.0,85,0.00,,,0.00,Wunderground v.1.15,2013-11-24 14:28:00,
2013-11-24 08:33:00,13.8,10.4,30.79,NE,51,3.0,7.0,86,0.00,,,0.00,Wunderground v.1.15,2013-11-24 14:33:00,
2013-11-24 08:39:00,14.1,10.7,30.79,NE,51,3.0,7.0,86,0.00,,,0.00,Wunderground v.1.15,2013-11-24 14:39:00,
2013-11-24 08:44:00,14.5,11.1,30.79,NE,51,3.0,7.0,86,0.00,,,0.00,Wunderground v.1.15,2013-11-24 14:44:00,
2013-11-24 08:50:00,14.9,11.2,30.79,NE,51,3.0,7.0,85,0.00,,,0.00,Wunderground v.1.15,2013-11-24 14:50:00,
2013-11-24 08:55:00,15.2,11.5,30.79,SSE,159,3.0,7.0,85,0.00,,,0.00,Wunderground v.1.15,2013-11-24 14:55:00,
2013-11-24 09:01:00,15.7,11.7,30.79,SSE,160,2.0,7.0,84,0.00,,,0.00,Wunderground v.1.15,2013-11-24 15:01:00,
2013-11-24 09:06:00,16.1,11.8,30.79,SSE,161,2.0,7.0,83,0.00,,,0.00,Wunderground v.1.15,2013-11-24 15:06:00,
2013-11-24 09:12:00,16.4,11.9,30.78,SSE,154,3.0,7.0,82,0.00,,,0.00,Wunderground v.1.15,2013-11-24 15:12:00,
2013-11-24 09:17:00,16.8,12.3,30.78,South,178,3.0,7.0,82,0.00,,,0.00,Wunderground v.1.15,2013-11-24 15:17:00,
2013-11-24 09:27:00,17.6,12.2,30.78,SSE,155,3.0,7.0,79,0.00,,,0.00,Wunderground v.1.15,2013-11-24 15:27:00,
2013-11-24 09:33:00,18.0,12.6,30.78,South,176,2.0,7.0,79,0.00,,,0.00,Wunderground v.1.15,2013-11-24 15:33:00,
2013-11-24 09:38:00,18.3,12.6,30.77,SSE,148,2.0,7.0,78,0.00,,,0.00,Wunderground v.1.15,2013-11-24 15:38:00,
2013-11-24 09:44:00,18.8,12.5,30.77,SSW,198,2.0,7.0,76,0.00,,,0.00,Wunderground v.1.15,2013-11-24 15:44:00,
2013-11-24 09:49:00,19.1,12.5,30.77,SSE,165,3.0,7.0,75,0.00,,,0.00,Wunderground v.1.15,2013-11-24 15:49:00,
2013-11-24 09:55:00,19.4,12.5,30.77,South,186,2.0,7.0,74,0.00,,,0.00,Wunderground v.1.15,2013-11-24 15:55:00,
2013-11-24 10:00:00,19.7,12.4,30.77,South,187,2.0,2.0,73,0.00,,,0.00,Wunderground v.1.15,2013-11-24 16:00:00,
2013-11-24 10:06:00,19.7,12.4,30.76,SW,219,3.0,7.0,73,0.00,,,0.00,Wunderground v.1.15,2013-11-24 16:06:00,
2013-11-24 10:11:00,19.9,11.7,30.76,WSW,251,3.0,7.0,70,0.00,,,0.00,Wunderground v.1.15,2013-11-24 16:11:00,
2013-11-24 10:17:00,19.6,10.7,30.76,SW,229,5.0,7.0,68,0.00,,,0.00,Wunderground v.1.15,2013-11-24 16:17:00,
2013-11-24 10:22:00,19.9,10.7,30.75,WSW,242,4.0,7.0,67,0.00,,,0.00,Wunderground v.1.15,2013-11-24 16:22:00,
2013-11-24 10:28:00,20.4,11.2,30.75,WSW,241,2.0,7.0,67,0.00,,,0.00,Wunderground v.1.15,2013-11-24 16:28:00,
2013-11-24 10:33:00,20.6,11.7,30.75,WSW,243,3.0,7.0,68,0.00,,,0.00,Wunderground v.1.15,2013-11-24 16:33:00,
2013-11-24 10:39:00,21.0,12.4,30.75,SW,232,4.0,7.0,69,0.00,,,0.00,Wunderground v.1.15,2013-11-24 16:39:00,
2013-11-24 10:44:00,21.1,12.2,30.75,SSW,197,3.0,7.0,68,0.00,,,0.00,Wunderground v.1.15,2013-11-24 16:44:00,
2013-11-24 10:50:00,20.9,11.7,30.74,WSW,244,3.0,3.0,67,0.00,,,0.00,Wunderground v.1.15,2013-11-24 16:50:00,
2013-11-24 10:55:00,21.2,12.6,30.74,SSE,158,3.0,7.0,69,0.00,,,0.00,Wunderground v.1.15,2013-11-24 16:55:00,
2013-11-24 11:01:00,21.6,12.7,30.74,WSW,248,2.0,7.0,68,0.00,,,0.00,Wunderground v.1.15,2013-11-24 17:01:00,
2013-11-24 11:06:00,22.0,13.0,30.73,West,274,3.0,7.0,68,0.00,,,0.00,Wunderground v.1.15,2013-11-24 17:06:00,
2013-11-24 11:12:00,22.5,12.5,30.73,WSW,246,4.0,7.0,65,0.00,,,0.00,Wunderground v.1.15,2013-11-24 17:12:00,
2013-11-24 11:17:00,22.7,12.3,30.73,SW,221,3.0,7.0,64,0.00,,,0.00,Wunderground v.1.15,2013-11-24 17:17:00,
2013-11-24 11:23:00,23.4,13.0,30.72,South,185,2.0,7.0,64,0.00,,,0.00,Wunderground v.1.15,2013-11-24 17:23:00,
2013-11-24 11:28:00,23.6,12.8,30.72,South,183,4.0,7.0,63,0.00,,,0.00,Wunderground v.1.15,2013-11-24 17:28:00,
2013-11-24 11:34:00,24.0,13.6,30.72,WSW,237,4.0,8.0,64,0.00,,,0.00,Wunderground v.1.15,2013-11-24 17:34:00,
2013-11-24 11:40:00,23.9,12.4,30.71,WSW,251,4.0,7.0,61,0.00,,,0.00,Wunderground v.1.15,2013-11-24 17:40:00,
2013-11-24 11:45:00,23.7,11.8,30.70,SSW,202,5.0,8.0,60,0.00,,,0.00,Wunderground v.1.15,2013-11-24 17:45:00,
2013-11-24 11:51:00,24.4,13.2,30.70,WSW,257,4.0,7.0,62,0.00,,,0.00,Wunderground v.1.15,2013-11-24 17:51:00,
2013-11-24 11:56:00,24.1,11.8,30.70,West,262,4.0,8.0,59,0.00,,,0.00,Wunderground v.1.15,2013-11-24 17:56:00,
2013-11-24 12:02:00,24.2,11.5,30.69,WSW,238,4.0,8.0,58,0.00,,,0.00,Wunderground v.1.15,2013-11-24 18:02:00,
2013-11-24 12:07:00,24.7,11.6,30.69,WSW,250,4.0,8.0,57,0.00,,,0.00,Wunderground v.1.15,2013-11-24 18:07:00,
2013-11-24 12:13:00,24.8,12.5,30.69,SW,229,5.0,7.0,59,0.00,,,0.00,Wunderground v.1.15,2013-11-24 18:13:00,
2013-11-24 12:18:00,25.0,13.1,30.68,SW,236,5.0,7.0,60,0.00,,,0.00,Wunderground v.1.15,2013-11-24 18:18:00,
2013-11-24 12:24:00,25.6,13.2,30.68,WNW,286,5.0,7.0,59,0.00,,,0.00,Wunderground v.1.15,2013-11-24 18:24:00,
2013-11-24 12:29:00,25.6,12.9,30.68,WSW,238,5.0,7.0,58,0.00,,,0.00,Wunderground v.1.15,2013-11-24 18:29:00,
2013-11-24 12:35:00,25.7,11.7,30.68,West,276,6.0,10.0,55,0.00,,,0.00,Wunderground v.1.15,2013-11-24 18:35:00,
2013-11-24 12:40:00,25.6,10.8,30.67,WSW,241,7.0,7.0,53,0.00,,,0.00,Wunderground v.1.15,2013-11-24 18:40:00,
2013-11-24 12:46:00,26.1,11.7,30.67,WSW,250,6.0,7.0,54,0.00,,,0.00,Wunderground v.1.15,2013-11-24 18:46:00,
2013-11-24 12:51:00,26.5,12.1,30.66,WNW,290,5.0,7.0,54,0.00,,,0.00,Wunderground v.1.15,2013-11-24 18:51:00,
2013-11-24 12:56:00,26.7,12.7,30.66,WSW,254,6.0,7.0,55,0.00,,,0.00,Wunderground v.1.15,2013-11-24 18:56:00,
2013-11-24 13:02:00,26.7,12.3,30.66,SW,229,6.0,9.0,54,0.00,,,0.00,Wunderground v.1.15,2013-11-24 19:02:00,
2013-11-24 13:08:00,27.0,11.7,30.66,WNW,296,7.0,9.0,52,0.00,,,0.00,Wunderground v.1.15,2013-11-24 19:08:00,
2013-11-24 13:22:00,26.9,11.6,30.64,WSW,257,7.0,7.0,52,0.00,,,0.00,Wunderground v.1.15,2013-11-24 19:22:00,
2013-11-24 13:28:00,27.5,12.6,30.64,WNW,293,6.0,7.0,53,0.00,,,0.00,Wunderground v.1.15,2013-11-24 19:28:00,
2013-11-24 13:34:00,27.6,11.4,30.64,West,278,6.0,7.0,50,0.00,,,0.00,Wunderground v.1.15,2013-11-24 19:34:00,
2013-11-24 13:39:00,27.6,11.8,30.63,SW,229,6.0,7.0,51,0.00,,,0.00,Wunderground v.1.15,2013-11-24 19:39:00,
2013-11-24 13:45:00,28.1,11.8,30.63,West,279,5.0,7.0,50,0.00,,,0.00,Wunderground v.1.15,2013-11-24 19:45:00,
2013-11-24 13:50:00,28.1,11.4,30.63,WSW,254,5.0,7.0,49,0.00,,,0.00,Wunderground v.1.15,2013-11-24 19:50:00,
2013-11-24 13:56:00,28.7,12.4,30.62,West,277,5.0,10.0,50,0.00,,,0.00,Wunderground v.1.15,2013-11-24 19:56:00,
2013-11-24 14:01:00,28.8,11.1,30.62,NW,304,7.0,13.0,47,0.00,,,0.00,Wunderground v.1.15,2013-11-24 20:01:00,
2013-11-24 14:07:00,28.4,10.2,30.61,WNW,284,8.0,13.0,46,0.00,,,0.00,Wunderground v.1.15,2013-11-24 20:07:00,
2013-11-24 14:17:00,28.1,10.4,30.61,WNW,283,7.0,7.0,47,0.00,,,0.00,Wunderground v.1.15,2013-11-24 20:17:00,
2013-11-24 14:23:00,28.4,11.6,30.61,West,266,7.0,7.0,49,0.00,,,0.00,Wunderground v.1.15,2013-11-24 20:23:00,
2013-11-24 14:28:00,28.8,11.6,30.61,WNW,287,7.0,9.0,48,0.00,,,0.00,Wunderground v.1.15,2013-11-24 20:28:00,
2013-11-24 14:34:00,29.2,11.9,30.61,SW,231,7.0,7.0,48,0.00,,,0.00,Wunderground v.1.15,2013-11-24 20:34:00,
2013-11-24 14:40:00,28.9,11.2,30.61,SW,221,7.0,7.0,47,0.00,,,0.00,Wunderground v.1.15,2013-11-24 20:40:00,
2013-11-24 14:45:00,28.7,11.5,30.61,West,269,7.0,9.0,48,0.00,,,0.00,Wunderground v.1.15,2013-11-24 20:45:00,
2013-11-24 14:50:00,28.7,11.5,30.60,West,271,7.0,8.0,48,0.00,,,0.00,Wunderground v.1.15,2013-11-24 20:50:00,
2013-11-24 14:56:00,28.6,11.8,30.60,West,275,7.0,9.0,49,0.00,,,0.00,Wunderground v.1.15,2013-11-24 20:56:00,
2013-11-24 15:02:00,28.3,11.1,30.60,West,267,7.0,9.0,48,0.00,,,0.00,Wunderground v.1.15,2013-11-24 21:02:00,
2013-11-24 15:07:00,28.2,11.0,30.60,SW,232,7.0,9.0,48,0.00,,,0.00,Wunderground v.1.15,2013-11-24 21:07:00,
2013-11-24 15:12:00,28.5,12.2,30.59,WSW,240,6.0,7.0,50,0.00,,,0.00,Wunderground v.1.15,2013-11-24 21:12:00,
2013-11-24 15:18:00,28.6,10.9,30.59,SW,232,6.0,7.0,47,0.00,,,0.00,Wunderground v.1.15,2013-11-24 21:18:00,
2013-11-24 15:34:00,28.3,11.1,30.58,West,260,8.0,9.0,48,0.00,,,0.00,Wunderground v.1.15,2013-11-24 21:34:00,
2013-11-24 15:39:00,28.0,10.3,30.58,WSW,244,8.0,9.0,47,0.00,,,0.00,Wunderground v.1.15,2013-11-24 21:39:00,
2013-11-24 15:45:00,27.8,10.6,30.58,West,259,7.0,8.0,48,0.00,,,0.00,Wunderground v.1.15,2013-11-24 21:45:00,
2013-11-24 15:50:00,27.6,10.9,30.58,West,260,7.0,8.0,49,0.00,,,0.00,Wunderground v.1.15,2013-11-24 21:50:00,
2013-11-24 15:56:00,27.5,11.7,30.58,WSW,257,7.0,8.0,51,0.00,,,0.00,Wunderground v.1.15,2013-11-24 21:56:00,
2013-11-24 16:01:00,27.3,11.5,30.58,SW,232,7.0,7.0,51,0.00,,,0.00,Wunderground v.1.15,2013-11-24 22:01:00,
2013-11-24 16:07:00,27.2,12.3,30.58,WSW,242,6.0,7.0,53,0.00,,,0.00,Wunderground v.1.15,2013-11-24 22:07:00,
2013-11-24 16:12:00,27.1,12.6,30.57,West,260,6.0,7.0,54,0.00,,,0.00,Wunderground v.1.15,2013-11-24 22:12:00,
2013-11-24 16:17:00,27.0,12.1,30.57,SW,230,6.0,10.0,53,0.00,,,0.00,Wunderground v.1.15,2013-11-24 22:17:00,
2013-11-24 16:23:00,26.8,12.8,30.57,WSW,250,6.0,7.0,55,0.00,,,0.00,Wunderground v.1.15,2013-11-24 22:23:00,
2013-11-24 16:28:00,26.4,12.4,30.56,West,259,5.0,7.0,55,0.00,,,0.00,Wunderground v.1.15,2013-11-24 22:28:00,
2013-11-24 16:36:00,26.1,12.5,30.56,WSW,242,5.0,7.0,56,0.00,,,0.00,Wunderground v.1.15,2013-11-24 22:36:00,
2013-11-24 16:42:00,25.9,12.3,30.55,WSW,240,4.0,7.0,56,0.00,,,0.00,Wunderground v.1.15,2013-11-24 22:42:00,
2013-11-24 16:48:00,25.7,13.7,30.55,SW,225,4.0,7.0,60,0.00,,,0.00,Wunderground v.1.15,2013-11-24 22:48:00,
2013-11-24 16:53:00,25.2,13.6,30.55,SW,217,4.0,7.0,61,0.00,,,0.00,Wunderground v.1.15,2013-11-24 22:53:00,
2013-11-24 16:58:00,24.7,13.9,30.54,SW,217,3.0,7.0,63,0.00,,,0.00,Wunderground v.1.15,2013-11-24 22:58:00,
2013-11-24 17:04:00,24.4,13.6,30.54,SW,217,1.0,7.0,63,0.00,,,0.00,Wunderground v.1.15,2013-11-24 23:04:00,
2013-11-24 17:09:00,24.2,13.0,30.54,SW,217,0.0,7.0,62,0.00,,,0.00,Wunderground v.1.15,2013-11-24 23:09:00,
2013-11-24 17:15:00,24.0,13.6,30.54,SW,217,1.0,7.0,64,0.00,,,0.00,Wunderground v.1.15,2013-11-24 23:15:00,
2013-11-24 17:21:00,23.9,13.8,30.54,SW,217,3.0,7.0,65,0.00,,,0.00,Wunderground v.1.15,2013-11-24 23:21:00,
2013-11-24 17:27:00,24.2,14.1,30.53,SW,236,4.0,7.0,65,0.00,,,0.00,Wunderground v.1.15,2013-11-24 23:27:00,
2013-11-24 17:33:00,24.4,14.0,30.53,SW,228,4.0,7.0,64,0.00,,,0.00,Wunderground v.1.15,2013-11-24 23:33:00,
2013-11-24 17:38:00,24.5,14.4,30.53,WSW,238,4.0,7.0,65,0.00,,,0.00,Wunderground v.1.15,2013-11-24 23:38:00,
2013-11-24 17:43:00,24.4,14.7,30.53,WSW,237,4.0,7.0,66,0.00,,,0.00,Wunderground v.1.15,2013-11-24 23:43:00,
2013-11-24 17:49:00,24.2,14.5,30.53,WSW,237,4.0,7.0,66,0.00,,,0.00,Wunderground v.1.15,2013-11-24 23:49:00,
2013-11-24 17:55:00,24.1,14.4,30.53,WSW,248,4.0,7.0,66,0.00,,,0.00,Wunderground v.1.15,2013-11-24 23:55:00,
2013-11-24 18:00:00,24.2,14.5,30.53,WSW,250,4.0,7.0,66,0.00,,,0.00,Wunderground v.1.15,2013-11-25 00:00:00,
2013-11-24 18:06:00,24.4,14.0,30.53,WSW,242,5.0,7.0,64,0.00,,,0.00,Wunderground v.1.15,2013-11-25 00:06:00,
2013-11-24 18:12:00,24.4,14.3,30.53,WSW,246,5.0,7.0,65,0.00,,,0.00,Wunderground v.1.15,2013-11-25 00:12:00,
2013-11-24 18:18:00,24.3,13.9,30.52,WSW,250,4.0,7.0,64,0.00,,,0.00,Wunderground v.1.15,2013-11-25 00:18:00,
2013-11-24 18:23:00,24.3,13.9,30.52,WSW,245,5.0,7.0,64,0.00,,,0.00,Wunderground v.1.15,2013-11-25 00:23:00,
2013-11-24 18:28:00,24.2,13.8,30.52,WSW,238,5.0,7.0,64,0.00,,,0.00,Wunderground v.1.15,2013-11-25 00:28:00,
2013-11-24 18:34:00,24.0,13.6,30.52,WSW,243,5.0,7.0,64,0.00,,,0.00,Wunderground v.1.15,2013-11-25 00:34:00,
2013-11-24 18:40:00,23.6,13.9,30.52,WSW,255,4.0,7.0,66,0.00,,,0.00,Wunderground v.1.15,2013-11-25 00:40:00,
2013-11-24 18:45:00,23.6,13.5,30.52,WSW,240,4.0,7.0,65,0.00,,,0.00,Wunderground v.1.15,2013-11-25 00:45:00,
2013-11-24 18:50:00,23.5,13.5,30.52,WSW,240,4.0,7.0,65,0.00,,,0.00,Wunderground v.1.15,2013-11-25 00:50:00,
2013-11-24 18:56:00,23.4,13.7,30.51,SW,233,4.0,7.0,66,0.00,,,0.00,Wunderground v.1.15,2013-11-25 00:56:00,
2013-11-24 19:02:00,23.3,13.6,30.51,SW,233,4.0,7.0,66,0.00,,,0.00,Wunderground v.1.15,2013-11-25 01:02:00,
2013-11-24 19:07:00,23.0,13.7,30.51,SW,233,4.0,7.0,67,0.00,,,0.00,Wunderground v.1.15,2013-11-25 01:07:00,
2013-11-24 19:13:00,22.8,13.8,30.51,SW,233,3.0,7.0,68,0.00,,,0.00,Wunderground v.1.15,2013-11-25 01:13:00,
2013-11-24 19:18:00,22.9,13.6,30.51,SW,233,3.0,7.0,67,0.00,,,0.00,Wunderground v.1.15,2013-11-25 01:18:00,
2013-11-24 19:24:00,23.0,13.7,30.50,WSW,238,4.0,7.0,67,0.00,,,0.00,Wunderground v.1.15,2013-11-25 01:24:00,
2013-11-24 19:29:00,23.2,14.2,30.50,SW,234,4.0,7.0,68,0.00,,,0.00,Wunderground v.1.15,2013-11-25 01:29:00,
2013-11-24 19:35:00,23.3,14.0,30.50,WSW,240,5.0,7.0,67,0.00,,,0.00,Wunderground v.1.15,2013-11-25 01:35:00,
2013-11-24 19:40:00,23.3,14.3,30.50,WSW,249,5.0,7.0,68,0.00,,,0.00,Wunderground v.1.15,2013-11-25 01:40:00,
2013-11-24 19:46:00,23.2,14.2,30.50,WSW,238,5.0,7.0,68,0.00,,,0.00,Wunderground v.1.15,2013-11-25 01:46:00,
2013-11-24 19:51:00,23.2,14.2,30.49,WSW,243,4.0,7.0,68,0.00,,,0.00,Wunderground v.1.15,2013-11-25 01:51:00,
2013-11-24 19:57:00,22.9,14.2,30.50,WSW,257,4.0,7.0,69,0.00,,,0.00,Wunderground v.1.15,2013-11-25 01:57:00,
2013-11-24 20:02:00,22.6,14.3,30.49,WSW,257,4.0,7.0,70,0.00,,,0.00,Wunderground v.1.15,2013-11-25 02:02:00,
2013-11-24 20:08:00,22.6,14.3,30.49,WSW,257,4.0,7.0,70,0.00,,,0.00,Wunderground v.1.15,2013-11-25 02:08:00,
2013-11-24 20:14:00,23.0,14.3,30.49,WSW,255,4.0,7.0,69,0.00,,,0.00,Wunderground v.1.15,2013-11-25 02:14:00,
2013-11-24 20:19:00,23.2,14.5,30.49,WSW,255,5.0,7.0,69,0.00,,,0.00,Wunderground v.1.15,2013-11-25 02:19:00,
2013-11-24 20:25:00,23.5,14.5,30.49,WSW,254,5.0,8.0,68,0.00,,,0.00,Wunderground v.1.15,2013-11-25 02:25:00,
2013-11-24 20:31:00,23.6,14.6,30.49,WSW,250,5.0,7.0,68,0.00,,,0.00,Wunderground v.1.15,2013-11-25 02:31:00,
2013-11-24 20:36:00,23.6,14.6,30.48,WSW,256,5.0,7.0,68,0.00,,,0.00,Wunderground v.1.15,2013-11-25 02:36:00,
2013-11-24 20:42:00,23.8,14.4,30.48,WSW,254,6.0,7.0,67,0.00,,,0.00,Wunderground v.1.15,2013-11-25 02:42:00,
2013-11-24 20:47:00,23.9,14.5,30.48,WSW,256,6.0,7.0,67,0.00,,,0.00,Wunderground v.1.15,2013-11-25 02:47:00,
2013-11-24 20:53:00,24.0,14.3,30.48,WSW,254,6.0,9.0,66,0.00,,,0.00,Wunderground v.1.15,2013-11-25 02:53:00,
2013-11-24 20:58:00,24.3,14.2,30.48,WSW,250,6.0,9.0,65,0.00,,,0.00,Wunderground v.1.15,2013-11-25 02:58:00,
2013-11-24 21:04:00,24.3,14.2,30.48,WSW,256,6.0,7.0,65,0.00,,,0.00,Wunderground v.1.15,2013-11-25 03:04:00,
2013-11-24 21:09:00,24.3,14.2,30.48,WSW,250,5.0,7.0,65,0.00,,,0.00,Wunderground v.1.15,2013-11-25 03:09:00,
2013-11-24 21:16:00,24.5,14.1,30.47,WSW,253,5.0,7.0,64,0.00,,,0.00,Wunderground v.1.15,2013-11-25 03:16:00,
2013-11-24 21:22:00,24.6,14.1,30.47,SW,229,5.0,9.0,64,0.00,,,0.00,Wunderground v.1.15,2013-11-25 03:22:00,
2013-11-24 21:28:00,24.9,14.1,30.46,SW,236,6.0,9.0,63,0.00,,,0.00,Wunderground v.1.15,2013-11-25 03:28:00,
2013-11-24 21:33:00,25.0,14.5,30.46,WSW,244,6.0,8.0,64,0.00,,,0.00,Wunderground v.1.15,2013-11-25 03:33:00,
2013-11-24 21:39:00,25.2,14.7,30.46,WSW,250,7.0,8.0,64,0.00,,,0.00,Wunderground v.1.15,2013-11-25 03:39:00,
2013-11-24 21:45:00,25.4,14.9,30.45,WSW,242,6.0,10.0,64,0.00,,,0.00,Wunderground v.1.15,2013-11-25 03:45:00,
2013-11-24 21:52:00,25.6,15.1,30.45,SW,224,6.0,7.0,64,0.00,,,0.00,Wunderground v.1.15,2013-11-25 03:52:00,
2013-11-24 21:58:00,25.6,15.1,30.45,WSW,238,5.0,7.0,64,0.00,,,0.00,Wunderground v.1.15,2013-11-25 03:58:00,
2013-11-24 22:03:00,25.6,15.1,30.45,SW,230,5.0,7.0,64,0.00,,,0.00,Wunderground v.1.15,2013-11-25 04:03:00,
2013-11-24 22:09:00,25.6,15.5,30.44,WSW,243,5.0,7.0,65,0.00,,,0.00,Wunderground v.1.15,2013-11-25 04:09:00,
2013-11-24 22:15:00,25.6,15.5,30.44,SW,232,5.0,7.0,65,0.00,,,0.00,Wunderground v.1.15,2013-11-25 04:15:00,
2013-11-24 22:20:00,25.6,15.1,30.44,SW,217,5.0,5.0,64,0.00,,,0.00,Wunderground v.1.15,2013-11-25 04:20:00,
2013-11-24 22:26:00,25.6,15.8,30.43,SW,236,5.0,7.0,66,0.00,,,0.00,Wunderground v.1.15,2013-11-25 04:26:00,
2013-11-24 22:32:00,25.6,15.8,30.43,WSW,243,4.0,8.0,66,0.00,,,0.00,Wunderground v.1.15,2013-11-25 04:32:00,
2013-11-24 22:38:00,25.7,15.6,30.43,SW,233,5.0,8.0,65,0.00,,,0.00,Wunderground v.1.15,2013-11-25 04:38:00,
2013-11-24 22:43:00,25.8,16.0,30.43,SW,232,5.0,7.0,66,0.00,,,0.00,Wunderground v.1.15,2013-11-25 04:43:00,
2013-11-24 22:49:00,26.0,15.5,30.43,WSW,245,6.0,9.0,64,0.00,,,0.00,Wunderground v.1.15,2013-11-25 04:49:00,
2013-11-24 22:54:00,26.1,15.6,30.42,WSW,238,8.0,10.0,64,0.00,,,0.00,Wunderground v.1.15,2013-11-25 04:54:00,
2013-11-24 23:00:00,26.2,15.3,30.42,WSW,239,8.0,8.0,63,0.00,,,0.00,Wunderground v.1.15,2013-11-25 05:00:00,
2013-11-24 23:01:00,26.2,15.3,30.42,SW,234,8.0,11.0,63,0.00,,,0.00,Wunderground v.1.15,2013-11-25 05:01:00,
2013-11-24 23:02:00,26.2,14.9,30.42,WSW,252,8.0,11.0,62,0.00,,,0.00,Wunderground v.1.15,2013-11-25 05:02:00,
2013-11-24 23:03:00,26.2,14.9,30.42,WSW,257,8.0,11.0,62,0.00,,,0.00,Wunderground v.1.15,2013-11-25 05:03:00,
2013-11-24 23:05:00,26.2,15.3,30.42,WSW,250,8.0,11.0,63,0.00,,,0.00,Wunderground v.1.15,2013-11-25 05:05:00,
2013-11-24 23:06:00,26.2,15.7,30.42,WSW,239,8.0,11.0,64,0.00,,,0.00,Wunderground v.1.15,2013-11-25 05:06:00,
2013-11-24 23:08:00,26.3,15.4,30.42,WSW,239,9.0,11.0,63,0.00,,,0.00,Wunderground v.1.15,2013-11-25 05:08:00,
2013-11-24 23:13:00,26.4,15.1,30.42,WSW,246,9.0,11.0,62,0.00,,,0.00,Wunderground v.1.15,2013-11-25 05:13:00,
2013-11-24 23:18:00,26.4,15.5,30.42,West,261,8.0,11.0,63,0.00,,,0.00,Wunderground v.1.15,2013-11-25 05:18:00,
2013-11-24 23:24:00,26.5,15.6,30.42,WSW,248,7.0,8.0,63,0.00,,,0.00,Wunderground v.1.15,2013-11-25 05:24:00,
2013-11-24 23:30:00,26.5,15.6,30.41,WSW,246,7.0,7.0,63,0.00,,,0.00,Wunderground v.1.15,2013-11-25 05:30:00,
2013-11-24 23:35:00,26.6,15.3,30.41,WSW,242,7.0,8.0,62,0.00,,,0.00,Wunderground v.1.15,2013-11-25 05:35:00,
2013-11-24 23:41:00,26.6,15.7,30.41,West,262,7.0,9.0,63,0.00,,,0.00,Wunderground v.1.15,2013-11-25 05:41:00,
2013-11-24 23:47:00,26.7,15.4,30.42,WSW,250,7.0,10.0,62,0.00,,,0.00,Wunderground v.1.15,2013-11-25 05:47:00,
2013-11-24 23:52:00,26.8,15.1,30.42,West,281,8.0,10.0,61,0.00,,,0.00,Wunderground v.1.15,2013-11-25 05:52:00,
2013-11-24 23:57:00,26.9,15.2,30.41,West,269,8.0,12.0,61,0.00,,,0.00,Wunderground v.1.15,2013-11-25 05:57:00,